[[{"header":{"parameterUnit":"m.s-1","parameterCategory":2,"la1":30.2992,"la2":30.254,"lo1":-89.0895,"lo2":-89.0443,"dy":0.0025,"dx":0.0025,"nx":19,"ny":19,"refTime":"2026-04-21T03:00:00:Z","depth":"0","parameterNumber":2,"parameterNumberName":"U-component_of_CURRENTS"},"data":[0,0,0,0.4087,0.409,0.425,0.4251,0.4396,0.4397,0,0,0,0,0,0,0,0,0,0,0,0.4024,0.4024,0.4087,0.4091,0.425,0.4251,0.4395,0.4397,0,0,0,0,0,0,0,0,0,0,0,0.4023,0.4024,0.4025,0.4091,0.425,0.4251,0.4395,0.4291,0,0,0,0,0,0,0,0,0,0,0.4145,0.4097,0.4024,0.4025,0.4092,0.4249,0.4251,0.4287,0.4298,0.4304,0,0.4323,0,0.4363,0.4404,0.4405,0,0,0,0.4098,0.4088,0.4126,0.4025,0.4094,0.4249,0.418,0.4293,0.4305,0.4318,0.4325,0.4332,0.4365,0.4405,0.4406,0.4562,0.4563,0,0,0.4089,0.406,0.4118,0.4133,0.4126,0.4175,0.4185,0.4302,0.4311,0.4326,0.4336,0.4368,0.4406,0.4407,0.4561,0.4562,0,0,0,0.4059,0.4054,0.4091,0.4126,0.416,0.4179,0.4191,0.4307,0.4317,0.4337,0.437,0.4406,0.4408,0.456,0.4562,0.4621,0,0,0,0.4054,0.4036,0.4086,0.4072,0.4158,0.4245,0.4193,0.4309,0.4324,0.4369,0.4407,0.4409,0.456,0.4561,0.4617,0.4628,0,0,0,0.4018,0.4033,0.4047,0.407,0.4136,0.4245,0.4264,0.4314,0.4343,0.4405,0.4409,0.4559,0.4561,0.4614,0.4623,0.4806,0,0,0,0.3989,0.4024,0.4046,0.4109,0.4135,0.427,0.4263,0.4364,0.4422,0.4407,0.456,0.4562,0.4613,0.462,0.48,0.4685,0.4701,0,0,0.4019,0.4027,0.4069,0.4093,0.4197,0.4249,0.4379,0.4439,0.4452,0.4516,0.452,0.4619,0.4622,0.4805,0.4802,0.4814,0,0,0,0.407,0.4085,0.413,0.4192,0.4291,0.4389,0.4458,0.4504,0.4584,0.4495,0.4643,0.4644,0.4758,0.4677,0.4688,0.4646,0.4571,0.4571,0.4571,0.4011,0.4085,0.4162,0.4257,0.435,0.449,0.4581,0.4651,0.4649,0.4696,0.4712,0.4909,0.482,0.4828,0.4786,0.4742,0.4742,0.4742,0.4742,0.4031,0.4073,0.4177,0.428,0.4396,0.4512,0.4689,0.4725,0.4878,0.48,0.4911,0.4763,0.4842,0.4794,0.4747,0.4746,0.4745,0.4745,0.4745,0.3975,0.4012,0.4088,0.4221,0.4358,0.4519,0.4667,0.48,0.494,0.502,0.5031,0.5027,0.4976,0.5125,0.5126,0.5127,0.5128,0.5128,0.5129,0.388,0.3967,0.4008,0.4158,0.4226,0.4381,0.466,0.4804,0.5039,0.5094,0.5094,0.5026,0.5028,0.5003,0.5142,0.514,0.5138,0.5137,0.5136,0.3822,0.3835,0.3902,0.3953,0.41,0.4177,0.4484,0.4802,0.5029,0.5131,0.5126,0.5167,0.5159,0.5146,0.5126,0.529,0.529,0.529,0.529,0.3731,0.3758,0.3804,0.3846,0.3932,0.4077,0.4243,0.4568,0.4944,0.5071,0.5171,0.501,0.5005,0.498,0.4972,0.4945,0.506,0.506,0.506,0.3672,0.3713,0.3709,0.3771,0.385,0.3956,0.4064,0.4236,0.4729,0.5052,0.5153,0.5162,0.4924,0.492,0.487,0.4861,0.4811,0,0]},{"header":{"parameterUnit":"m.s-1","parameterCategory":2,"la1":30.2992,"la2":30.254,"lo1":-89.0895,"lo2":-89.0443,"dy":0.0025,"dx":0.0025,"nx":19,"ny":19,"refTime":"2026-04-21T03:00:00:Z","depth":"0","parameterNumber":3,"parameterNumberName":"V-component_of_CURRENTS"},"data":[0,0,0,-0.011,-0.0112,-0.0223,-0.0224,-0.0424,-0.0425,0,0,0,0,0,0,0,0,0,0,0,-0.0074,-0.0074,-0.011,-0.0112,-0.0223,-0.0224,-0.0423,-0.0425,0,0,0,0,0,0,0,0,0,0,0,-0.0074,-0.0074,-0.0074,-0.0112,-0.0223,-0.0224,-0.0423,-0.0332,0,0,0,0,0,0,0,0,0,0,-0.0221,-0.0161,-0.0074,-0.0074,-0.0112,-0.0223,-0.0224,-0.0328,-0.0338,-0.0379,0,-0.0375,0,-0.0391,-0.0437,-0.0437,0,0,0,-0.0145,-0.0152,-0.0181,-0.0074,-0.0113,-0.0222,-0.0182,-0.0333,-0.0345,-0.0393,-0.0378,-0.0385,-0.0394,-0.0438,-0.0439,-0.0517,-0.0516,0,0,-0.0138,-0.0104,-0.0173,-0.0187,-0.0115,-0.0178,-0.0185,-0.034,-0.0343,-0.0378,-0.0389,-0.0397,-0.0439,-0.044,-0.0517,-0.0517,0,0,0,-0.0099,-0.01,-0.0125,-0.018,-0.0187,-0.0181,-0.0189,-0.0336,-0.0343,-0.0391,-0.0399,-0.044,-0.0442,-0.0518,-0.0517,-0.0349,0,0,0,-0.0096,-0.0074,-0.0122,-0.0105,-0.0183,-0.0253,-0.0181,-0.0333,-0.0351,-0.0398,-0.044,-0.0444,-0.0518,-0.0517,-0.0354,-0.0223,0,0,0,-0.0073,-0.0072,-0.0077,-0.0102,-0.0135,-0.025,-0.0268,-0.0338,-0.0355,-0.0437,-0.0444,-0.0519,-0.0518,-0.0359,-0.0234,-0.0016,0,0,0,-0.005,-0.0019,-0.0075,-0.0048,-0.0134,-0.018,-0.0268,-0.0324,-0.0386,-0.0441,-0.0518,-0.0517,-0.0361,-0.0241,-0.0025,0.0252,0.0317,0,0,0.0008,-0.0011,0.0005,-0.0047,-0.0036,-0.0169,-0.0167,-0.0284,-0.0385,-0.0479,-0.0481,-0.0352,-0.0235,-0.0018,0.0312,0.0377,0,0,0,0.0035,0.0056,0.0043,0.0039,-0.0028,-0.0045,-0.0187,-0.0243,-0.032,-0.0411,-0.0378,-0.0309,-0.0176,-0.0031,0.0019,-0.021,-0.0512,-0.0512,-0.0512,0.0171,0.0139,0.0176,0.0137,0.0109,0.0021,0.0006,-0.0094,-0.0246,-0.0248,-0.0193,0.0062,0.0212,0.0254,0.0011,-0.025,-0.0249,-0.0249,-0.0248,0.0289,0.0324,0.0291,0.0323,0.0291,0.0285,0.0194,0.0121,0.013,-0.0067,0.0053,0.0111,0.0321,0.004,-0.0238,-0.024,-0.0241,-0.0242,-0.0243,0.0391,0.0408,0.0423,0.0487,0.0551,0.0494,0.065,0.0505,0.0356,0.0426,0.0623,0.0622,0.0406,0.0494,0.0496,0.0497,0.0499,0.05,0.0501,0.05,0.051,0.0622,0.0674,0.076,0.0888,0.0924,0.0998,0.1019,0.0887,0.0889,0.0479,0.029,0.0295,0.0524,0.052,0.0517,0.0515,0.0513,0.0636,0.0663,0.0831,0.0935,0.1159,0.1439,0.1459,0.1725,0.1735,0.1822,0.1155,0.1148,0.1154,0.1112,0.1137,0.1571,0.1571,0.1571,0.1571,0.0757,0.0769,0.1052,0.1265,0.1527,0.1705,0.2231,0.2368,0.2021,0.1754,0.145,0.1251,0.1219,0.1209,0.1165,0.118,0.1615,0.1614,0.1613,0.0878,0.0951,0.1193,0.1398,0.1693,0.206,0.26,0.2854,0.2194,0.1572,0.1078,0.1076,0.0716,0.0684,0.0599,0.0557,0.0555,0,0]}],[{"header":{"parameterUnit":"m.s-1","parameterCategory":2,"la1":30.2992,"la2":30.254,"lo1":-89.0895,"lo2":-89.0443,"dy":0.0025,"dx":0.0025,"nx":19,"ny":19,"refTime":"2026-04-21T03:00:00:Z","depth":"2","parameterNumber":2,"parameterNumberName":"U-component_of_CURRENTS"},"data":[0,0,0,0.3104,0.3108,0.3259,0.326,0.3436,0.3437,0,0,0,0,0,0,0,0,0,0,0,0.3027,0.3028,0.3104,0.3108,0.3259,0.326,0.3435,0.3437,0,0,0,0,0,0,0,0,0,0,0,0.3027,0.3028,0.3028,0.3109,0.3259,0.326,0.3435,0.3324,0,0,0,0,0,0,0,0,0,0,0.3179,0.3118,0.3027,0.3028,0.311,0.3259,0.326,0.3319,0.3331,0.3364,0,0.3376,0,0.3425,0.3449,0.345,0,0,0,0.3102,0.3108,0.3148,0.3028,0.3111,0.3259,0.3189,0.3325,0.3339,0.338,0.3379,0.3387,0.3428,0.345,0.3451,0.365,0.365,0,0,0.3094,0.306,0.3139,0.3156,0.3137,0.3184,0.3194,0.3334,0.3342,0.338,0.3392,0.3431,0.3451,0.3453,0.3649,0.365,0,0,0,0.3074,0.3054,0.3092,0.3148,0.3185,0.3189,0.32,0.3336,0.3348,0.3394,0.3433,0.3452,0.3455,0.3648,0.3649,0.3729,0,0,0,0.3069,0.3044,0.3087,0.307,0.3182,0.3269,0.3198,0.3337,0.3356,0.3432,0.3453,0.3456,0.3647,0.3648,0.3725,0.375,0,0,0,0.3023,0.304,0.3052,0.3068,0.3139,0.3267,0.3287,0.3342,0.338,0.345,0.3457,0.3646,0.3648,0.3721,0.3744,0.384,0,0,0,0.2991,0.3021,0.3051,0.3129,0.3138,0.3268,0.3287,0.3404,0.3469,0.3453,0.3647,0.3649,0.372,0.3741,0.3835,0.3678,0.3687,0,0,0.3015,0.3023,0.3081,0.3112,0.3185,0.3247,0.3393,0.3489,0.3507,0.3596,0.3602,0.3726,0.3744,0.3839,0.3794,0.3798,0,0,0,0.3084,0.3102,0.3141,0.3197,0.3286,0.3389,0.3489,0.3549,0.3659,0.3556,0.3745,0.3753,0.3811,0.3707,0.3712,0.3658,0.3658,0.3658,0.3658,0.305,0.3113,0.3188,0.3272,0.3356,0.3503,0.3608,0.3703,0.3727,0.3792,0.3833,0.3975,0.3865,0.3867,0.3853,0.3853,0.3854,0.3854,0.3854,0.308,0.3132,0.3221,0.3308,0.3415,0.3539,0.3746,0.3804,0.3966,0.3927,0.398,0.3812,0.3876,0.3861,0.386,0.3859,0.3858,0.3858,0.3857,0.3029,0.3063,0.3131,0.325,0.3397,0.3588,0.3744,0.391,0.4029,0.41,0.4024,0.402,0.4025,0.4161,0.4161,0.4162,0.4162,0.4163,0.4163,0.2937,0.3007,0.3048,0.3208,0.3288,0.3469,0.3764,0.3872,0.4051,0.41,0.4099,0.4079,0.4069,0.4044,0.4172,0.417,0.4169,0.4168,0.4168,0.2864,0.2878,0.2942,0.2999,0.3186,0.3237,0.355,0.3763,0.3953,0.3981,0.4097,0.4095,0.4058,0.4051,0.4026,0.4142,0.4142,0.4142,0.4142,0.2787,0.2811,0.2851,0.2899,0.2999,0.3133,0.317,0.3366,0.3681,0.3799,0.3814,0.3675,0.3684,0.3618,0.3621,0.3583,0.3585,0.3583,0.3582,0.2735,0.2776,0.2758,0.2823,0.2901,0.2961,0.2893,0.2902,0.3207,0.3558,0.3691,0.4109,0.3938,0.394,0.3861,0.3857,0.3806,0,0]},{"header":{"parameterUnit":"m.s-1","parameterCategory":2,"la1":30.2992,"la2":30.254,"lo1":-89.0895,"lo2":-89.0443,"dy":0.0025,"dx":0.0025,"nx":19,"ny":19,"refTime":"2026-04-21T03:00:00:Z","depth":"2","parameterNumber":3,"parameterNumberName":"V-component_of_CURRENTS"},"data":[0,0,0,0.0178,0.0177,0.0102,0.0102,-0.0028,-0.003,0,0,0,0,0,0,0,0,0,0,0,0.0212,0.0211,0.0178,0.0177,0.0102,0.0101,-0.0028,-0.003,0,0,0,0,0,0,0,0,0,0,0,0.0212,0.0211,0.0211,0.0177,0.0102,0.0101,-0.0028,0.0035,0,0,0,0,0,0,0,0,0,0,0.0111,0.0157,0.0211,0.0211,0.0176,0.0102,0.0101,0.0038,0.0031,-0.0001,0,-0.0001,0,-0.0018,-0.0038,-0.0039,0,0,0,0.0167,0.0163,0.0136,0.0211,0.0176,0.0102,0.0133,0.0034,0.0026,-0.0011,-0.0003,-0.0008,-0.0021,-0.0039,-0.004,-0.0066,-0.0065,0,0,0.0171,0.0198,0.0142,0.0132,0.017,0.0136,0.0131,0.003,0.003,-0.0003,-0.0011,-0.0023,-0.004,-0.0041,-0.0066,-0.0065,0,0,0,0.019,0.0201,0.0178,0.0137,0.0126,0.0134,0.0128,0.0035,0.0026,-0.0012,-0.0024,-0.0041,-0.0042,-0.0067,-0.0066,0.0081,0,0,0,0.0192,0.0212,0.018,0.0195,0.0129,0.0085,0.0136,0.0033,0.0021,-0.0024,-0.0041,-0.0043,-0.0068,-0.0066,0.0076,0.0181,0,0,0,0.0212,0.0214,0.0209,0.0197,0.0167,0.0087,0.0072,0.003,0.0013,-0.0039,-0.0044,-0.0068,-0.0067,0.0071,0.017,0.0232,0,0,0,0.0236,0.0266,0.021,0.024,0.0168,0.0183,0.0072,0.0061,0.003,-0.0041,-0.0068,-0.0066,0.0069,0.0164,0.0226,0.027,0.0302,0,0,0.0293,0.0274,0.0292,0.0241,0.0301,0.0192,0.0236,0.0134,0.0039,-0.0041,-0.0042,0.0078,0.017,0.0231,0.0363,0.0392,0,0,0,0.0323,0.0345,0.0353,0.0366,0.0347,0.0351,0.0246,0.0195,0.0121,0.0027,0.0069,0.0123,0.0156,0.017,0.0193,-0.0058,-0.0059,-0.0059,-0.0059,0.0422,0.0421,0.0483,0.0486,0.0495,0.0452,0.0443,0.035,0.0224,0.0213,0.0235,0.0378,0.0393,0.0412,0.0202,0.0203,0.0204,0.0204,0.0204,0.0539,0.0577,0.0588,0.0648,0.0645,0.067,0.0609,0.0535,0.0493,0.0366,0.0389,0.0316,0.0446,0.0216,0.0214,0.0212,0.0211,0.021,0.0209,0.0608,0.0634,0.0666,0.0764,0.0834,0.0812,0.0906,0.0804,0.0659,0.0685,0.0633,0.063,0.0481,0.0663,0.0664,0.0664,0.0665,0.0666,0.0666,0.0665,0.0708,0.0799,0.089,0.0964,0.1062,0.1078,0.1074,0.0961,0.0829,0.0828,0.0533,0.0518,0.0506,0.0678,0.0676,0.0674,0.0673,0.0672,0.0758,0.0775,0.0925,0.1012,0.1206,0.1378,0.1373,0.1363,0.1296,0.1243,0.0893,0.0884,0.0842,0.0821,0.0815,0.1057,0.1057,0.1057,0.1057,0.0809,0.083,0.1038,0.1209,0.1409,0.1528,0.17,0.1605,0.1356,0.1161,0.1157,0.1057,0.1039,0.1,0.0974,0.0968,0.125,0.125,0.1251,0.0878,0.0934,0.1092,0.1264,0.15,0.1703,0.1848,0.1746,0.1376,0.1256,0.1163,0.1075,0.0909,0.0889,0.0803,0.0773,0.0751,0,0]}],[{"header":{"parameterUnit":"m.s-1","parameterCategory":2,"la1":30.2992,"la2":30.254,"lo1":-89.0895,"lo2":-89.0443,"dy":0.0025,"dx":0.0025,"nx":19,"ny":19,"refTime":"2026-04-21T03:00:00:Z","depth":"4","parameterNumber":2,"parameterNumberName":"U-component_of_CURRENTS"},"data":[0,0,0,0.1785,0.179,0.1992,0.1993,0.2173,0.2174,0,0,0,0,0,0,0,0,0,0,0,0.1722,0.1724,0.1785,0.179,0.1992,0.1993,0.2173,0.2174,0,0,0,0,0,0,0,0,0,0,0,0.1721,0.1723,0.1725,0.1791,0.1992,0.1993,0.2172,0.204,0,0,0,0,0,0,0,0,0,0,0.1853,0.1804,0.1723,0.1725,0.1792,0.1992,0.1993,0.2034,0.2048,0.2058,0,0.2102,0,0.2138,0.2184,0.2185,0,0,0,0.1792,0.1793,0.1848,0.1725,0.1794,0.1992,0.1902,0.2043,0.2058,0.2076,0.2105,0.2112,0.2141,0.2185,0.2186,0.2357,0.2357,0,0,0.1781,0.1756,0.1838,0.1858,0.1862,0.1895,0.1908,0.2053,0.2073,0.2106,0.2117,0.2144,0.2186,0.2188,0.2356,0.2357,0,0,0,0.1747,0.1748,0.1801,0.185,0.1892,0.1901,0.1916,0.2067,0.2086,0.2119,0.2146,0.2187,0.2189,0.2355,0.2356,0.2406,0,0,0,0.1741,0.1729,0.1796,0.1783,0.1889,0.1992,0.1926,0.2076,0.2094,0.2145,0.2187,0.2191,0.2354,0.2356,0.2402,0.243,0,0,0,0.171,0.1725,0.1753,0.1781,0.1868,0.1991,0.2019,0.2081,0.2109,0.2185,0.2191,0.2354,0.2355,0.24,0.2426,0.2536,0,0,0,0.1669,0.17,0.1753,0.1805,0.1866,0.1965,0.2019,0.2107,0.2171,0.2188,0.2354,0.2356,0.2399,0.2423,0.2532,0.222,0,0,0,0.1673,0.1701,0.1729,0.1781,0.1862,0.1937,0.2045,0.2154,0.2202,0.2299,0.2304,0.2404,0.2425,0.2535,0.2326,0,0,0,0,0.1706,0.1726,0.1762,0.1832,0.1916,0.2037,0.2129,0.2201,0.2341,0.2251,0.2426,0.2438,0.2506,0.2312,0.2365,0.2364,0.2364,0.2364,0.2364,0.1677,0.1727,0.1782,0.1867,0.1949,0.2105,0.2211,0.233,0.236,0.2446,0.2495,0.2633,0.2428,0.2509,0.251,0.251,0.251,0.251,0.2511,0.1676,0.1702,0.1801,0.1875,0.2016,0.2134,0.2335,0.2409,0.2597,0.2578,0.2642,0.2395,0.2516,0.2515,0.2514,0.2513,0.2513,0.2513,0.2512,0.1642,0.1655,0.1736,0.1858,0.2025,0.2201,0.2376,0.2529,0.2661,0.2727,0.2585,0.2698,0.2679,0.2796,0.2797,0.2798,0.2798,0.2799,0.2799,0.1566,0.1637,0.1706,0.1853,0.1956,0.2152,0.2436,0.2549,0.2712,0.2628,0.2784,0.273,0.2721,0.2698,0.2809,0.2807,0.2806,0.2805,0.2804,0.1475,0.1547,0.1619,0.1711,0.1915,0.2028,0.2326,0.2487,0.2604,0.2616,0.258,0.2589,0.2558,0.2554,0.2523,0.2586,0.2583,0.2579,0,0.1409,0.1451,0.1539,0.1633,0.1737,0.1942,0.2034,0.2215,0.2376,0.2292,0.2603,0.2555,0.256,0.2515,0.2507,0.2464,0,0,0,0.1348,0.1397,0.1418,0.1537,0.1633,0.1811,0.2046,0.205,0.2339,0.237,0.249,0.2513,0.2673,0.2837,0.2812,0.28,0.2763,0,0]},{"header":{"parameterUnit":"m.s-1","parameterCategory":2,"la1":30.2992,"la2":30.254,"lo1":-89.0895,"lo2":-89.0443,"dy":0.0025,"dx":0.0025,"nx":19,"ny":19,"refTime":"2026-04-21T03:00:00:Z","depth":"4","parameterNumber":3,"parameterNumberName":"V-component_of_CURRENTS"},"data":[0,0,0,0.0267,0.0267,0.0243,0.0243,0.0199,0.0199,0,0,0,0,0,0,0,0,0,0,0,0.0282,0.0282,0.0267,0.0267,0.0243,0.0243,0.0199,0.0199,0,0,0,0,0,0,0,0,0,0,0,0.0282,0.0282,0.0282,0.0267,0.0243,0.0243,0.0199,0.022,0,0,0,0,0,0,0,0,0,0,0.0245,0.0264,0.0282,0.0282,0.0267,0.0243,0.0243,0.0221,0.0219,0.0206,0,0.021,0,0.02,0.0196,0.0195,0,0,0,0.0265,0.0267,0.0256,0.0283,0.0267,0.0243,0.0253,0.022,0.0217,0.0203,0.0209,0.0207,0.02,0.0195,0.0195,0.0209,0.0209,0,0,0.0266,0.0279,0.0258,0.0255,0.0269,0.0254,0.0253,0.0218,0.0221,0.0209,0.0206,0.0199,0.0195,0.0195,0.0208,0.0209,0,0,0,0.0271,0.028,0.0271,0.0257,0.0252,0.0253,0.0252,0.0223,0.0219,0.0206,0.0199,0.0195,0.0194,0.0208,0.0209,0.0304,0,0,0,0.0272,0.0283,0.0272,0.0279,0.0253,0.0239,0.0257,0.0221,0.0217,0.0199,0.0195,0.0194,0.0207,0.0208,0.03,0.035,0,0,0,0.0282,0.0284,0.0283,0.028,0.0269,0.024,0.0234,0.022,0.0213,0.0195,0.0194,0.0207,0.0208,0.0297,0.0343,0.0333,0,0,0,0.0293,0.0319,0.0284,0.0318,0.0269,0.0304,0.0234,0.0251,0.0247,0.0194,0.0207,0.0208,0.0296,0.034,0.033,0.0347,0,0,0,0.0337,0.0325,0.0348,0.0316,0.0366,0.0306,0.0355,0.0312,0.0256,0.0216,0.0216,0.0302,0.0343,0.0333,0.0416,0,0,0,0,0.037,0.0389,0.0397,0.0416,0.0418,0.0424,0.0384,0.0352,0.0317,0.0256,0.0299,0.0322,0.0312,0.0313,0.0214,0.0214,0.0214,0.0214,0.0214,0.0429,0.0441,0.0495,0.0511,0.0527,0.0511,0.0504,0.045,0.0393,0.0387,0.0397,0.0455,0.0463,0.0389,0.0389,0.039,0.039,0.0391,0.0391,0.0509,0.0543,0.0568,0.0625,0.0628,0.0662,0.0615,0.0571,0.0525,0.0475,0.046,0.0413,0.04,0.0398,0.0397,0.0396,0.0395,0.0394,0.0394,0.0542,0.0565,0.0608,0.0693,0.0755,0.0754,0.0785,0.0723,0.0617,0.0617,0.0562,0.0503,0.0493,0.0592,0.0592,0.0592,0.0592,0.0593,0.0593,0.0553,0.0602,0.0674,0.0764,0.0828,0.0892,0.0884,0.0842,0.0738,0.0674,0.0634,0.0522,0.0515,0.0503,0.0596,0.0595,0.0595,0.0595,0.0594,0.0585,0.0609,0.0718,0.0793,0.0945,0.0994,0.1003,0.0907,0.085,0.076,0.0675,0.0671,0.0625,0.0615,0.0605,0.0731,0.0732,0.0732,0,0.0593,0.0615,0.0757,0.0881,0.0999,0.1053,0.1033,0.0976,0.0824,0.0817,0.0805,0.0713,0.0708,0.0658,0.065,0.0641,0,0,0,0.061,0.0656,0.075,0.0883,0.1024,0.1027,0.1027,0.0982,0.087,0.0811,0.0746,0.0743,0.0692,0.0605,0.0522,0.0514,0.049,0,0]}]]